DAMPETORP Weather Reports


time (UTC)temp
C
wind
direction
speed
KPH
gust
KPH
rain 1hr
cm
rain 24hr
cm
rain mn
cm
humidity
%
barometer
mb
20260508013009 -1 33 0.0 0.0 0.00 0.00 0.00 88 1020.3
20260508011506 -1 33 0.0 0.0 0.00 0.00 0.00 88 1020.0
20260508010004 -1 33 0.0 0.0 0.00 0.00 0.00 86 1019.8
20260508004502 -1 33 0.0 0.0 0.00 0.00 0.00 85 1019.6
20260508003105 -1 33 0.0 0.0 0.00 0.00 0.00 85 1019.5
20260508001557 0 33 0.0 0.0 0.00 0.00 0.00 85 1019.4
20260508000054 0 33 0.0 0.0 0.00 0.00 0.00 83 1019.2
20260507234551 0 33 0.0 0.0 0.00 0.00 0.00 83 1019.1
20260507233049 0 33 0.0 0.0 0.00 0.00 0.00 81 1018.9
20260507231548 0 33 0.0 0.0 0.00 0.00 0.00 80 1018.8
20260507230048 0 33 0.0 0.0 0.00 0.00 0.00 79 1018.7
20260507224544 0 33 0.0 0.0 0.00 0.00 0.00 78 1018.6
20260507223037 1 33 0.0 0.0 0.00 0.00 0.00 77 1018.5
20260507221540 1 33 0.0 0.0 0.00 0.00 0.00 76 1018.4
20260507220033 1 33 0.0 0.0 0.00 0.00 0.00 71 1018.3
20260507214534 1 33 0.0 0.0 0.00 0.00 0.00 67 1018.2
20260507213036 2 33 0.0 0.0 0.00 0.00 0.00 65 1017.9
20260507211528 2 33 0.0 0.0 0.00 0.00 0.00 64 1017.8
20260507210025 2 33 0.0 0.0 0.00 0.00 0.00 63 1017.6
20260507204524 3 33 0.0 0.0 0.00 0.00 0.00 64 1017.5
20260507203031 3 53 0.0 0.0 0.00 0.00 0.00 59 1017.3
20260507201525 4 53 0.0 1.6 0.00 0.00 0.00 59 1017.3
20260507200020 5 53 0.0 0.0 0.00 0.00 0.00 53 1017.0
20260507194519 5 53 0.0 0.0 0.00 0.00 0.00 53 1016.8
20260507193018 6 53 0.0 0.0 0.00 0.00 0.00 45 1016.6
20260507191515 7 49 0.0 1.6 0.00 0.00 0.00 43 1016.3
20260507190012 8 94 0.0 0.0 0.00 0.00 0.00 40 1016.0
20260507184511 10 94 0.0 0.0 0.00 0.00 0.00 34 1015.9
20260507183012 11 94 0.0 1.6 0.00 0.00 0.00 30 1015.8
20260507181509 12 91 0.0 1.6 0.00 0.00 0.00 27 1015.7
20260507180011 13 99 0.0 3.2 0.00 0.00 0.00 25 1015.6
20260507174507 13 135 0.0 4.8 0.00 0.00 0.00 23 1015.4
20260507173014 14 108 1.6 8.0 0.00 0.00 0.00 21 1015.3
20260507171508 14 145 0.0 6.4 0.00 0.00 0.00 20 1015.1
20260507170003 15 146 4.8 8.0 0.00 0.00 0.00 20 1015.0
20260507164605 15 69 1.6 6.4 0.00 0.00 0.00 19 1014.9
20260507163059 15 146 0.0 11.3 0.00 0.00 0.00 20 1014.8
20260507161558 15 53 3.2 11.3 0.00 0.00 0.00 21 1014.8
20260507160057 15 99 0.0 11.3 0.00 0.00 0.00 23 1014.7
20260507154555 15 125 4.8 14.5 0.00 0.00 0.00 23 1014.6
20260507153052 15 128 1.6 6.4 0.00 0.00 0.00 23 1014.6
20260507151550 15 153 3.2 9.7 0.00 0.00 0.00 25 1014.5
20260507150049 15 106 3.2 12.9 0.00 0.00 0.00 26 1014.5
20260507144548 15 146 0.0 17.7 0.00 0.00 0.00 27 1014.3
20260507143052 15 134 0.0 12.9 0.00 0.00 0.00 30 1014.1
20260507141552 15 150 3.2 17.7 0.00 0.00 0.00 31 1014.1
20260507140044 15 352 9.7 22.5 0.00 0.00 0.00 31 1013.9
20260507134542 15 320 3.2 9.7 0.00 0.00 0.00 35 1013.9
20260507133059 16 318 4.8 14.5 0.00 0.00 0.00 33 1013.8
20260507131548 16 333 1.6 9.7 0.00 0.00 0.00 35 1013.7
20260507130051 14 130 0.0 3.2 0.00 0.00 0.00 33 1013.7
20260507124536 13 166 1.6 8.0 0.00 0.00 0.00 37 1013.7
20260507123036 13 144 3.2 9.7 0.00 0.00 0.00 37 1013.6
20260507121534 14 176 3.2 12.9 0.00 0.00 0.00 36 1013.5
20260507120042 15 126 0.0 12.9 0.00 0.00 0.00 34 1013.4
20260507114554 15 154 1.6 14.5 0.00 0.00 0.00 37 1013.4
20260507113030 15 323 8.0 17.7 0.00 0.00 0.00 38 1013.4
20260507111534 14 177 0.0 1.6 0.00 0.00 0.00 36 1013.5
20260507110027 14 177 1.6 8.0 0.00 0.00 0.00 38 1013.4
20260507104526 13 164 3.2 6.4 0.00 0.00 0.00 39 1013.3
20260507103023 14 233 4.8 14.5 0.00 0.00 0.00 38 1013.1
20260507101522 13 122 1.6 9.7 0.00 0.00 0.00 37 1013.1
20260507100019 13 151 0.0 12.9 0.00 0.00 0.00 37 1013.0
20260507094517 13 170 3.2 8.0 0.00 0.00 0.00 38 1012.9
20260507093017 13 106 0.0 12.9 0.00 0.00 0.00 39 1012.9
20260507091518 12 150 4.8 9.7 0.00 0.00 0.00 43 1013.0
20260507090021 12 157 1.6 8.0 0.00 0.00 0.00 43 1012.9
20260507084510 12 140 0.0 6.4 0.00 0.00 0.00 45 1013.0
20260507083006 12 158 0.0 4.8 0.00 0.00 0.00 49 1012.9
20260507081504 12 131 1.6 4.8 0.00 0.00 0.00 50 1012.8
20260507080003 11 33 0.0 4.8 0.00 0.00 0.00 51 1012.7
20260507074600 12 158 0.0 1.6 0.00 0.00 0.00 50 1012.7
20260507073106 11 143 0.0 4.8 0.00 0.00 0.00 54 1012.6
20260507071556 10 150 0.0 6.4 0.00 0.00 0.00 54 1012.6
20260507070055 11 112 0.0 3.2 0.00 0.00 0.00 53 1012.6
20260507064552 10 78 0.0 3.2 0.00 0.00 0.00 57 1012.5
20260507063056 10 87 0.0 1.6 0.00 0.00 0.00 56 1012.5
20260507061549 8 30 0.0 3.2 0.00 0.00 0.00 58 1012.4
20260507060050 8 126 0.0 4.8 0.00 0.00 0.00 60 1012.4
20260507054541 7 73 3.2 8.0 0.00 0.00 0.00 61 1012.2
20260507053039 6 334 4.8 8.0 0.00 0.00 0.00 62 1012.2
20260507051538 6 329 4.8 9.7 0.00 0.00 0.00 62 1012.1
20260507050035 5 94 0.0 0.0 0.00 0.00 0.00 68 1012.0
20260507044534 3 106 0.0 0.0 0.00 0.00 0.00 71 1012.0
20260507043033 3 106 0.0 0.0 0.00 0.00 0.00 74 1011.8
20260507041531 2 106 0.0 0.0 0.00 0.00 0.00 73 1011.8
20260507040030 2 106 0.0 0.0 0.00 0.00 0.00 73 1011.7
20260507034530 2 353 0.0 0.0 0.00 0.00 0.00 71 1011.7
20260507033030 2 353 0.0 0.0 0.00 0.00 0.00 71 1011.4
20260507031526 3 329 0.0 3.2 0.00 0.00 0.00 68 1011.3
20260507030026 2 329 0.0 3.2 0.00 0.00 0.00 72 1011.2
20260507024525 2 308 0.0 0.0 0.00 0.00 0.00 74 1011.4
20260507023023 1 307 0.0 1.6 0.00 0.00 0.00 74 1011.4
20260507021524 1 304 0.0 1.6 0.00 0.00 0.00 74 1011.4
20260507020028 1 304 0.0 0.0 0.00 0.00 0.00 70 1011.4
20260507014526 2 304 0.0 0.0 0.00 0.00 0.00 66 1011.3